This demonstration page uses our WeatherBlox Daily Observations layout. Learn more.

Left ArrowRight Arrow

Hourly Observations for March 31, 2018

Temp ( °F °C ) Dew Point ( °F °C ) Humidity (%) Winds ( mph kmh ) Pressure ( in mb ) Visibility ( mi km ) Precip ( " mm )
12:15 am 00:15 Clear 43 6 32 undefined 66 66 NW 9 15 30.24 1024 10 16 N/A
12:35 am 00:35 Clear 43 6 32 undefined 66 66 NW 10 17 30.24 1024 10 16 N/A
12:55 am 00:55 Clear 41 5 32 undefined 70 70 NW 13 20 30.24 1024 10 16 N/A
1:15 am 01:15 Clear 43 6 32 undefined 66 66 NNW 9 15 30.27 1025 10 16 N/A
1:35 am 01:35 Clear 41 5 32 undefined 70 70 NW 12 19 30.27 1025 10 16 N/A
1:55 am 01:55 Clear 41 5 32 undefined 70 70 NNW 7 11 30.27 1025 10 16 N/A
2:15 am 02:15 Clear 39 4 32 undefined 75 75 NNW 7 11 30.27 1025 10 16 N/A
2:35 am 02:35 Clear 41 5 32 undefined 70 70 N N/A 30.30 1026 10 16 N/A
2:55 am 02:55 Clear 39 4 32 undefined 75 75 N 6 9 30.30 1026 10 16 N/A
3:15 am 03:15 Clear 39 4 32 undefined 75 75 N 5 7 30.30 1026 10 16 N/A
3:35 am 03:35 Clear 39 4 32 undefined 75 75 N 5 7 30.30 1026 10 16 N/A
3:55 am 03:55 Clear 39 4 32 undefined 75 75 N N/A 30.30 1026 10 16 N/A
4:15 am 04:15 Clear 37 3 32 undefined 81 81 NNW 5 7 30.30 1026 10 16 N/A
4:35 am 04:35 Clear 36 2 32 undefined 87 87 NNW 7 11 30.33 1027 10 16 N/A
4:55 am 04:55 Clear 37 3 32 undefined 81 81 NNW 7 11 30.33 1027 10 16 N/A
5:15 am 05:15 Clear 36 2 32 undefined 87 87 NNW 5 7 30.33 1027 10 16 N/A
5:35 am 05:35 Clear 37 3 32 undefined 81 81 N N/A 30.33 1027 10 16 N/A
5:55 am 05:55 Clear 36 2 32 undefined 87 87 N N/A 30.33 1027 10 16 N/A
6:15 am 06:15 Clear 32 undefined 30 -1 93 93 N N/A 30.33 1027 10 16 N/A
6:35 am 06:35 Clear 32 undefined 32 undefined 100 100 WNW 5 7 30.33 1027 10 16 N/A
6:55 am 06:55 Clear 32 undefined 30 -1 93 93 W 5 7 30.36 1028 10 16 N/A
7:15 am 07:15 Sunny 32 undefined 32 undefined 100 100 WNW 7 11 30.36 1028 10 16 N/A
7:35 am 07:35 Sunny 34 1 32 undefined 93 93 N N/A 30.36 1028 10 16 N/A
7:55 am 07:55 Sunny 37 3 32 undefined 81 81 N N/A 30.36 1028 10 16 N/A
8:15 am 08:15 Sunny 41 5 32 undefined 70 70 N N/A 30.36 1028 10 16 N/A
8:35 am 08:35 Sunny 41 5 32 undefined 70 70 NNE 3 6 30.39 1029 10 16 N/A
8:55 am 08:55 Sunny 43 6 34 1 71 71 N N/A 30.39 1029 10 16 N/A
9:15 am 09:15 Sunny 45 7 34 1 66 66 N N/A 30.36 1028 10 16 N/A
9:35 am 09:35 Sunny 46 8 34 1 62 62 N 3 6 30.36 1028 10 16 N/A
9:55 am 09:55 Sunny 48 9 36 2 62 62 NNW 8 13 30.39 1029 10 16 N/A
10:15 am 10:15 Sunny 50 10 36 2 58 58 NNW 13 20 30.39 1029 10 16 N/A
10:35 am 10:35 Sunny 50 10 34 1 54 54 N 9 15 30.39 1029 10 16 N/A
10:55 am 10:55 Sunny 52 11 34 1 50 50 NE 7 11 30.39 1029 10 16 N/A
11:15 am 11:15 Sunny 52 11 34 1 50 50 NNE 5 7 30.36 1028 10 16 N/A
11:35 am 11:35 Sunny 54 12 32 undefined 44 44 NNE 3 6 30.36 1028 10 16 N/A
11:55 am 11:55 Sunny 54 12 32 undefined 44 44 N N/A 30.36 1028 10 16 N/A
12:15 pm 12:15 Sunny 54 12 32 undefined 44 44 SW 6 9 30.33 1027 10 16 N/A
12:35 pm 12:35 Sunny 55 13 32 undefined 41 41 SE 7 11 30.30 1026 10 16 N/A
12:55 pm 12:55 Sunny 57 14 32 undefined 39 39 SSW 7 11 30.27 1025 10 16 N/A
1:15 pm 13:15 Sunny 57 14 32 undefined 39 39 SSW 7 11 30.27 1025 10 16 N/A
1:35 pm 13:35 Sunny 57 14 30 -1 36 36 S 7 11 30.27 1025 10 16 N/A
1:55 pm 13:55 Sunny 59 15 30 -1 34 34 SE 6 9 30.27 1025 10 16 N/A
2:15 pm 14:15 Sunny 59 15 30 -1 34 34 SSE 9 15 30.24 1024 10 16 N/A
2:35 pm 14:35 Sunny 61 16 30 -1 31 31 S 14 22 30.24 1024 10 16 N/A
2:55 pm 14:55 Sunny 61 16 30 -1 31 31 S 12 19 30.24 1024 10 16 N/A
3:15 pm 15:15 Sunny 61 16 28 -2 29 29 S 15 24 30.21 1023 10 16 N/A
3:35 pm 15:35 Sunny 63 17 30 -1 30 30 SSW 15 24 30.21 1023 10 16 N/A
3:55 pm 15:55 Sunny 63 17 28 -2 27 27 S 10 17 30.18 1022 10 16 N/A
4:15 pm 16:15 Sunny 63 17 30 -1 30 30 S 14 22 30.18 1022 10 16 N/A
4:35 pm 16:35 Sunny 63 17 30 -1 30 30 SSW 12 19 30.18 1022 10 16 N/A
4:55 pm 16:55 Sunny 63 17 30 -1 30 30 S 17 28 30.15 1021 10 16 N/A
5:15 pm 17:15 Sunny 63 17 30 -1 30 30 SSW 14 22 30.15 1021 10 16 N/A
5:35 pm 17:35 Sunny 63 17 28 -2 27 27 S 17 28 30.15 1021 10 16 N/A
5:55 pm 17:55 Sunny 63 17 30 -1 30 30 S 17 28 30.12 1020 10 16 N/A
6:15 pm 18:15 Sunny 61 16 30 -1 31 31 S 16 26 30.12 1020 10 16 N/A
6:35 pm 18:35 Sunny 61 16 30 -1 31 31 S 16 26 30.12 1020 10 16 N/A
6:55 pm 18:55 Sunny 61 16 30 -1 31 31 S 16 26 30.12 1020 10 16 N/A
7:15 pm 19:15 Sunny 59 15 30 -1 34 34 S 12 19 30.12 1020 10 16 N/A
7:35 pm 19:35 Clear 59 15 30 -1 34 34 S 12 19 30.09 1019 10 16 N/A
8:15 pm 20:15 Clear 57 14 30 -1 36 36 SSE 10 17 30.09 1019 10 16 N/A
8:35 pm 20:35 Clear 55 13 32 undefined 41 41 S 9 15 30.09 1019 10 16 N/A
8:55 pm 20:55 Clear 55 13 30 -1 38 38 S 15 24 30.09 1019 10 16 N/A
9:15 pm 21:15 Clear 54 12 30 -1 41 41 S 10 17 30.09 1019 10 16 N/A
9:35 pm 21:35 Clear 52 11 32 undefined 47 47 S 7 11 30.09 1019 10 16 N/A
9:55 pm 21:55 Clear 54 12 32 undefined 44 44 S 10 17 30.09 1019 10 16 N/A
10:15 pm 22:15 Clear 52 11 32 undefined 47 47 S 7 11 30.09 1019 10 16 N/A
10:35 pm 22:35 Clear 50 10 32 undefined 50 50 S 8 13 30.12 1020 10 16 N/A
10:55 pm 22:55 Clear 50 10 32 undefined 50 50 S 5 7 30.12 1020 10 16 N/A
11:15 pm 23:15 Clear 52 11 32 undefined 47 47 S 3 6 30.09 1019 10 16 N/A
11:35 pm 23:35 Clear 50 10 32 undefined 50 50 S 6 9 30.12 1020 10 16 N/A
11:55 pm 23:55 Clear 50 10 32 undefined 50 50 S 8 13 30.09 1019 10 16 N/A

Powered by AerisWeather